Regional Weather Roundup
Issued by NWS

Home | Current Version | Previous Version | Graphics & Text | Print | Product List | Glossary On
Versions: 1 2 3 4 5 6 7 8 9 10 11 12 13 14 15 16 17 18 19 20 21 22 23 24 25 26 27
000
ASUS45 KPSR 020210
RWRAZ

ARIZONA HOURLY REGIONAL WEATHER ROUNDUP
NATIONAL WEATHER SERVICE PHOENIX AZ
700 PM MST THU DEC 01 2016

NOTE: FAIR INDICATES FEW OR NO CLOUDS BELOW 12,000 FEET WITH NO
SIGNIFICANT WEATHER AND/OR OBSTRUCTIONS TO VISIBILITY.

AZZ001>003-036-020300-
NORTHWEST ARIZONA

CITY           SKY/WX    TMP DP  RH WIND       PRES   REMARKS
BULLHEAD CITY  CLOUDY    57  19  23 N13       29.92S
KINGMAN        CLOUDY    41  20  43 E5        29.92R
$$

AZZ004>008-015-016-018-020300-
NORTH CENTRAL ARIZONA

CITY           SKY/WX    TMP DP  RH WIND       PRES   REMARKS
GRAND CANYON   MOCLDY    24  17  74 NE6       29.93S WCI  17
PRESCOTT       MOCLDY    36  22  56 CALM      29.91R
FLAGSTAFF      MOCLDY    26  18  71 CALM      29.92S
PAYSON         MOCLDY    39  14  35 CALM      29.94R
PAGE           MOCLDY    38  15  39 CALM      29.94S
$$

AZZ009>014-017-020300-
NORTHEAST ARIZONA

CITY           SKY/WX    TMP DP  RH WIND       PRES   REMARKS
WINSLOW        MOCLDY    28  17  63 SW7       29.94S WCI  21
SAINT JOHNS    MOCLDY    32  16  51 S3        29.92S
WINDOW ROCK    MOCLDY    30  17  58 E9        29.94S WCI  22
SHOW LOW       MOCLDY    32  14  47 CALM      29.94R
$$

AZZ023-020300-
GREATER PHOENIX AREA

CITY           SKY/WX    TMP DP  RH WIND       PRES   REMARKS
PHOENIX        PTCLDY    54  28  36 SW5       29.89R
BUCKEYE        PTCLDY    50  25  37 CALM      29.92R
GLENDALE       PTCLDY    54  30  40 CALM      29.91R
LUKE AFB       PTCLDY    54  26  34 SW7       29.89R
DEER VALLEY    PTCLDY    52  22  30 CALM      29.89R
SCOTTSDALE     CLEAR     54  26  34 CALM      29.91R
MESA-GATEWAY   PTCLDY    54  25  32 VRB3      29.90R
CHANDLER       CLEAR     54  27  35 W7        29.90R
$$

AZZ027-028-020300-
SOUTHWEST MARICOPA COUNTY AND PINAL COUNTY

CITY           SKY/WX    TMP DP  RH WIND       PRES   REMARKS
CASA GRANDE    NOT AVBL
GILA BEND      CLEAR     55  23  28 CALM      29.90R
$$

AZZ503-504-507>509-020300-
SOUTHEAST ARIZONA

CITY           SKY/WX    TMP DP  RH WIND       PRES   REMARKS
TUCSON         PTCLDY    53  19  26 N6        29.92R
DAVIS-MONTHAN  PTCLDY    51  19  28 NW6       29.90R
RYAN FIELD     CLEAR     48  21  34 W6        29.92R
NOGALES        CLEAR     45   9  23 E5        29.91R
SIERRA VISTA   PTCLDY    46  10  24 W7        29.92S
DOUGLAS        CLEAR     52  14  22 SW3       29.91R
SAFFORD        MOCLDY    51  19  28 NW8       29.87R
$$

AZZ020-021-025-026-031-020300-
SOUTHWEST ARIZONA

CITY           SKY/WX    TMP DP  RH WIND       PRES   REMARKS
YUMA           CLEAR     59  20  22 N7        29.91R
$$

CAZ031-033-041-043-047-048-061-020300-
SOUTHERN CALIFORNIA

CITY           SKY/WX    TMP DP  RH WIND       PRES   REMARKS
DOWNTOWN L.A.  CLEAR     58  49  72 CALM      29.92S
L.A. AIRPORT   CLEAR     58  52  80 W14       29.93S
SAN DIEGO      MOCLDY    59  50  72 W3        29.95S
BURBANK        CLEAR     58  40  51 E6        29.92R
ONTARIO        MOCLDY    58  36  43 W3        29.92R
RIVERSIDE      CLOUDY    60  36  40 CALM      29.93R
PALM SPRINGS   CLOUDY    60  27  28 CALM      29.93R
EL CENTRO NAS  PTCLDY    56  27  32 CALM      29.92R
IMPERIAL       PTCLDY    57  33  40 SW3       29.90R
BLYTHE         MOCLDY    58  27  30 CALM      29.92R
NEEDLES        MOCLDY    57  19  22 NW6       29.93R
$$

NVZ020-UTZ003-020300-
SOUTHERN NEVADA-UTAH

CITY           SKY/WX    TMP DP  RH WIND       PRES   REMARKS
LAS VEGAS      MOCLDY    53  19  26 CALM      29.94R
SALT LAKE CITY MOCLDY    31  26  82 W5        30.09R WCI  26
$$

NMZ009-TXZ055-020300-
NEW MEXICO-WEST TEXAS

CITY           SKY/WX    TMP DP  RH WIND       PRES   REMARKS
ALBUQUERQUE    CLOUDY    37  12  35 E3        29.96F
EL PASO        PTCLDY    48  23  37 E7        29.92R
$$


........................KEY........................
SKY/WX - SKY CONDITION/WEATHER
TMP    - TEMPERATURE IN FAHRENHEIT
DP     - DEW POINT IN FAHRENHEIT
RH     - RELATIVE HUMIDITY IN PERCENT
WIND   - DIRECTION AND SPEED IN MILES PER HOUR (MPH)
VRB    - VARIABLE WIND DIRECTION
PRES   - MEAN SEA LEVEL PRESSURE IN INCHES OF MERCURY
         F - FALLING PRESSURE   R - RISING PRESSURE
         S - STEADY PRESSURE
VSB    - VISIBILITY IN MILES
HX     - HEAT INDEX IN FAHRENHEIT
WCI    - WIND CHILL INDEX IN FAHRENHEIT
TC     - TEMPERATURE IN CELSIUS WHICH IS ALSO KNOWN AS
         TEMPERATURE IN CENTIGRADE
AFB    - AIR FORCE BASE
         LUKE AFB IS LUKE AIR FORCE BASE
         DAVIS-MONTHAN IS DAVIS-MONTHAN AIR FORCE BASE
NAS    - NAVAL AIR STATION
         EL CENTRO NAS IS EL CENTRO NAVAL AIR STATION
N/A    - NOT AVAILABLE





USA.gov is the U.S. government's official web portal to all federal, state and local government web resources and services.